Location: Bonneuil
(46.1010°N, 2.9693°E)
Time: 03:49:13
(UTC+00:00)

Cosmos 1602 Rocket - Pass Details

Date: 09 April 2020
Orbit: 603 x 634 km, 82.5° (Epoch: 02 June)

Event Time Altitude Azimuth Distance (km) Brightness Sun altitude
Rises 18:47:21 0° 346° (NNW) 2,921 7.5 -4.1°
Reaches altitude 10° 18:49:38 10° 342° (NNW) 2,005 6.7 -4.5°
Maximum altitude 18:53:57 54° 266° (W) 756 4.5 -5.2°
Drops below altitude 10° 18:58:12 10° 189° (S) 1,969 6.1 -5.9°
Sets 19:00:26 0° 185° (S) 2,864 6.8 -6.3°
